Regional Weather Roundup
Issued by NWS

Home | Current Version | Previous Version | Text Only | Print | Product List | Glossary On
Versions: 1 2 3 4 5 6 7 8 9 10 11 12 13 14 15 16 17 18 19 20 21 22 23 24 25 26 27 28 29 30 31 32 33 34 35 36 37 38 39 40 41 42 43 44 45 46 47 48 49 50
000
ASUS43 KDTX 302310
RWRMI
MICHIGAN HOURLY REGIONAL WEATHER ROUNDUP
NATIONAL WEATHER SERVICE DETROIT/PONTIAC MI
700 PM EDT SAT MAY 30 2015

NOTE: "FAIR" INDICATES FEW OR NO CLOUDS BELOW 12,000 FEET WITH NO
SIGNIFICANT WEATHER AND/OR OBSTRUCTION TO VISIBILITY.

MIZ047>049-052>055-059>063-066>070-074>076-081>083-310000-
SOUTHEAST LOWER MICHIGAN

CITY           SKY/WX    TMP DP  RH WIND       PRES   REMARKS
ADRIAN         HVY RAIN  70  68  93 CALM      29.97R VSB 3/4
ALMA           RAIN      51  49  93 N12G22    30.11R
ANN ARBOR      CLOUDY    69  67  93 N17       29.97R
BAD AXE        LGT RAIN  49  48  95 N12G20    30.10S
CARO           DRIZZLE   51  49  94 N10G18    30.10R
DETROIT CITY   LGT RAIN  58  55  90 N13G21    30.02R
DETROIT        LGT RAIN  64  61  90 NE15G26   29.98S FOG
FLINT          CLOUDY    58  52  80 NE20      30.06R
GROSSE ILE     LGT RAIN  63  61  94 NE9       29.97S
HILLSDALE      LGT RAIN  68  68 100 N7        29.98S
HOWELL         LGT RAIN  59  55  87 NE9G22    30.03R

CITY           SKY/WX    TMP DP  RH WIND       PRES   REMARKS
JACKSON        RAIN      61  58  90 N16       30.01R FOG
LAMBERTVILLE   HVY RAIN  72  68  88 SE7       29.96R
LANSING        LGT RAIN  55  53  93 N17G24    30.06R FOG
LAPEER         CLOUDY    53  50  90 NE12G20   30.08S
MONROE         LGT RAIN  72  68  88 NE8       29.94S
MT. CLEMENS    LGT RAIN  55  54  94 N14       30.01F
PONTIAC        RAIN      57  55  93 NE12G20   30.03R FOG
PORT HOPE        N/A     50  49  96 VRB5      30.09R
PORT HURON     HVY RAIN  50  50 100 N13G22    30.06R
TRI CITIES     LGT RAIN  54  49  83 N14       30.11R
MIDLAND        DRIZZLE   51  49  91 N6        30.12R
TROY           LGT RAIN  58  57  96 NE12      30.04S
SAGINAW HB     LGT RAIN  52  52 100 N17       30.10R
$$
MIZ043>046-050>051-056>058-064>065-071>073-077>080-310000-
SOUTHWEST LOWER MICHIGAN

CITY           SKY/WX    TMP DP  RH WIND       PRES   REMARKS
BATTLE CREEK   HVY RAIN  59  56  89 N18G25    30.02R FOG
BENTON HARBOR  HVY RAIN  56  56 100 NE9       30.01R FOG
BIG RAPIDS     LGT RAIN  50  45  81 N9        30.11R
COLDWATER      HVY RAIN  66  64  94 N6        29.98R
FREMONT        LGT RAIN  51  48  92 N9G20     30.10R
HOLLAND        LGT RAIN  54  51  90 NE8       30.06R
GRAND RAPIDS   LGT RAIN  54  52  93 NE14      30.06R FOG
IONIA          LGT RAIN  53  52  96 NE20      30.07S
KALAMAZOO      HVY RAIN  61  58  90 N12       30.03R FOG
LUDINGTON      CLOUDY    51  47  87 N9        30.16R
MARSHALL       HVY RAIN  61  59  92 N6G17     30.01R
MOUNT PLEASANT LGT RAIN  51  50  93 N6        30.10S
MUSKEGON       LGT RAIN  53  49  86 N13G21    30.09S
SOUTH HAVEN    RAIN      55  54  94 NE10G21   30.04R
$$
MIZ016>042-310000-
NORTHERN LOWER MICHIGAN

CITY           SKY/WX    TMP DP  RH WIND       PRES   REMARKS
ALPENA         CLOUDY    52  40  63 NW14      30.14R
BEAVER ISLAND  CLOUDY    46  37  70 N10G20    30.21S
BELLAIRE       CLOUDY    50  39  67 N8G17     30.18R
CADILLAC       LGT RAIN  46  43  86 N9G16     30.13S
CHARLEVOIX     CLOUDY    46  40  77 N14G20    30.22R
FRANKFORT      CLOUDY    47  37  65 N13G22    30.19S
GAYLORD        CLOUDY    49  40  71 N8        30.14S
GRAYLING       CLOUDY    49  43  80 NW8       30.14S
HARBOR SPRINGS CLOUDY    48  38  68 N6        30.18R
HOUGHTON LAKE  LGT RAIN  51  47  86 N9        30.13R
MANISTEE       CLOUDY    46  37  71 N9G20     30.18R
OSCODA         DRIZZLE   53  50  89 N9        30.10S
PELLSTON       CLOUDY    50  39  66 NW16G24   30.17R
ROGERS CITY    CLOUDY    50  40  67 NW9G16    30.15S
TRAVERSE CITY  CLOUDY    48  40  73 N10       30.17R
$$
MIZ007>008-015-310000-
EASTERN UPPER MICHIGAN

CITY           SKY/WX    TMP DP  RH WIND       PRES   REMARKS
KINROSS        CLOUDY    45  36  70 NW23G31   30.17S
MACKINAC ISLAN CLOUDY    49  38  66 N13       30.17S
NEWBERRY       CLOUDY    43  33  67 NW10      30.21F
S. S. MARIE    CLOUDY    46  35  65 NW12G18   30.18R
MUNISING         N/A     43  32  65 NW16G24   30.28F
$$
MIZ004>006-011>014-085-310000-
CENTRAL UPPER MICHIGAN

CITY           SKY/WX    TMP DP  RH WIND       PRES   REMARKS
MANISTIQUE     CLOUDY    45  31  59 NW17G25   30.23S
ESCANABA       CLOUDY    46  27  46 N15G22    30.24S
MENOMINEE      CLOUDY    54  39  58 NE15      30.21S
SAWYER-GWINN   SUNNY     43  27  52 N23G30    30.29R
$$
MIZ001>003-009>011-084-310000-
WESTERN UPPER MICHIGAN

CITY           SKY/WX    TMP DP  RH WIND       PRES   REMARKS
IRON MOUNTAIN  MOSUNNY   55  26  32 N14       30.23S
HOUGHTON       SUNNY     48  27  44 N12G20    30.31S
COPPER HARBOR    N/A     44  33  65 N10       30.32S
IRONWOOD       SUNNY     50  30  46 N9        30.28S
$$

ABBREVIATIONS USED IN REMARKS
   TC - TEMPERATURE IN CELSIUS
  WCI - WIND CHILL INDEX
   HX - HEAT INDEX
  VSB - VISIBILITY




USA.gov is the U.S. government's official web portal to all federal, state and local government web resources and services.